Location: Clanezzo
(45.7500°N, 9.6000°E)
Time: 10:25:46
(UTC+00:00)

CUTE-I - Pass Details

Date: 11 December 2023
Orbit: 807 x 822 km, 98.7° (Epoch: 23 February)

Event Time Altitude Azimuth Distance (km) Brightness Sun altitude
Rises 16:05:54 0° 147° (SSE) 3,318 ? -5.2°
Reaches altitude 10° 16:08:17 10° 142° (SE) 2,393 ? -5.5°
Maximum altitude 16:13:21 48° 69° (ENE) 1,056 ? -6.3°
Drops below altitude 10° 16:18:28 10° 356° (N) 2,419 ? -7.1°
Sets 16:20:53 0° 351° (N) 3,358 ? -7.5°
